Regional Weather Roundup
Issued by NWS Albany, NY

Home | Current Version | Previous Version | Graphics & Text | Print | Product List | Glossary On
Versions: 1 2 3 4 5 6 7 8 9 10 11 12 13 14 15 16 17 18 19 20 21 22 23 24 25 26 27 28 29 30 31 32 33 34 35 36 37 38 39 40 41 42 43 44 45 46 47 48 49 50
000
ASUS41 KALY 171310
RWRALY

NEW YORK STATE HOURLY WEATHER ROUNDUP
NATIONAL WEATHER SERVICE ALBANY NY
900 AM EDT FRI APR 17 2015

NOTE: "FAIR" INDICATES FEW OR NO CLOUDS BELOW 12,000 FEET WITH NO
SIGNIFICANT WEATHER AND/OR NO OBSTRUCTIONS TO VISIBILITY.

NYZ032-033-038>043-046>054-057>066-NYZ062>081-171400-
EAST


CITY           SKY/WX    TMP DP  RH WIND       PRES   REMARKS
ALBANY         CLOUDY    52  48  86 S9        30.00F
GLENS FALLS    CLOUDY    49  46  90 S6        29.99F
POUGHKEEPSIE   CLOUDY    56  52  86 S5        30.04F
NEWBURGH       CLOUDY    55  54  94 SW10      30.06F
MONTGOMERY     CLOUDY    55  27  34 SW10      30.04F
WHITE PLAINS   CLOUDY    54  52  93 VRB6      30.07F
ISLIP          CLOUDY    53  50  89 SW12G22   30.09F
NEW YORK CITY  CLOUDY    57  51  79 SW14G21   30.08F
CENTRAL PARK   CLOUDY    57  51  80 VRB7G24   30.11F
$$

NYZ005>009-017-018-044>046-055-056-171400-
CENTRAL


CITY           SKY/WX    TMP DP  RH WIND       PRES   REMARKS
FULTON         LGT RAIN  52  49  89 W8        30.01S FOG
SYRACUSE       CLOUDY    53  52  96 SW8       30.00F
ROME           CLOUDY    51  50  96 W7        30.01F FOG
ELMIRA         CLOUDY    56  51  84 W7        30.03S
BINGHAMTON     CLOUDY    50  49  96 SW8       30.02S
MONTICELLO     CLOUDY    50  50 100 SW5       30.05F
$$

NYZ026>034-041>043-171400-
NORTH


CITY           SKY/WX    TMP DP  RH WIND       PRES   REMARKS
WATERTOWN      FOG       46  45  96 SW7       29.99F VSB 1/4
FORT DRUM      NOT AVBL
MASSENA        CLOUDY    49  46  90 SW9       29.97F
SARANAC LAKE   CLOUDY    45  44  97 SW5       29.93F FOG
PLATTSBURGH    CLOUDY    45  43  93 SE5       29.95F
$$

NYZ001>004-010>016-019>021-171400-
WEST


CITY           SKY/WX    TMP DP  RH WIND       PRES   REMARKS
NIAGARA FALLS  CLOUDY    50  49  96 SW5       30.03R FOG
BUFFALO        LGT RAIN  47  46  97 SW12      30.03S VSB 1/2
DUNKIRK        LGT RAIN  49  49 100 W10       30.05S VSB 1
JAMESTOWN      CLOUDY    52  48  87 W6        30.05S
WELLSVILLE     CLOUDY    52  50  93 SW8       30.04S FOG
ROCHESTER      LGT RAIN  53  51  93 W7        30.01F FOG
PENN YAN       LGT RAIN  52  50  93 SW6       30.02S FOG
$$

             KEY
       WCI = WIND CHILL INDEX
       VSB = VISIBILITY
       HX  = HEAT INDEX
$$



USA.gov is the U.S. government's official web portal to all federal, state and local government web resources and services.